Regional Weather Roundup
Issued by NWS

Home | Current Version | Previous Version | Graphics & Text | Print | Product List | Glossary On
Versions: 1 2 3 4 5 6 7 8 9 10 11 12 13 14 15 16 17 18 19 20 21 22 23 24 25 26 27 28 29 30 31 32 33 34 35 36 37 38 39 40 41 42 43 44 45 46 47 48 49 50
000
ASUS43 KFSD 231902
RWRSD

WEATHER ROUNDUP FOR SOUTH DAKOTA
NATIONAL WEATHER SERVICE SIOUX FALLS SD
200 PM CDT WED MAY 23 2018

NOTE: "FAIR" INDICATES FEW OR NO CLOUDS BELOW 12,000 FEET WITH NO
SIGNIFICANT WEATHER AND/OR OBSTRUCTIONS TO VISIBILITY.


SDZ001>005-009-010-012>017-232000-
NORTHWEST AND NORTH CENTRAL SOUTH DAKOTA

CITY           SKY/WX    TMP DP  RH WIND       PRES   REMARKS
BUFFALO          N/A     75  55  49 S9        29.82F
FAITH            N/A     69  64  84 SW5       29.89S
MOBRIDGE       CLOUDY    79  67  66 SE15      29.86F
$$

SDZ012>016-024>037-041>051-057-063-072>074-232000-
SOUTHWEST AND SOUTH CENTRAL SOUTH DAKOTA

CITY           SKY/WX    TMP DP  RH WIND       PRES   REMARKS
RAPID CTY ARPT MOSUNNY   73  62  68 SE14      29.90F
PIERRE         PTSUNNY   78  67  68 S15       29.86S
CUSTER         SUNNY     68  45  43 VRB7      30.02S
ELLSWORTH AFB  MOSUNNY   73  64  73 SE13      29.90F
PHILIP         CLOUDY    72  64  76 SW12G18   29.89F
PINE RIDGE     CLOUDY    69  58  67 CALM      29.94F
SPEARFISH      FAIR      72  57  60 E8        29.93F
WINNER         FAIR      84  63  49 S14       29.91S
$$

SDZ004>011-016>023-039-040-232000-
NORTHEAST SOUTH DAKOTA

CITY           SKY/WX    TMP DP  RH WIND       PRES   REMARKS
ABERDEEN       PTSUNNY   80  67  64 SE25G37   29.93F
WATERTOWN      CLOUDY    75  65  70 SE15G26   29.99F
BROOKINGS      CLOUDY    76  66  71 SE21      30.01F
SISSETON         N/A     71  67  87 S23G31    29.98S
$$

SDZ017-020-022-023-036>040-048>070-232000-
SOUTHEAST SOUTH DAKOTA

CITY           SKY/WX    TMP DP  RH WIND       PRES   REMARKS
SIOUX FALLS    CLOUDY    83  69  62 S17G25    29.99F
HURON          PTSUNNY   82  68  62 SE17G31   29.91F
CHAMBERLAIN    MOSUNNY   83  72  67 SE21G26   29.90F
MITCHELL       PTSUNNY   84  69  60 SE29G41   29.91F
YANKTON        MOSUNNY   88  60  38 SE20G31   29.95F
$$

ABBREVIATIONS USED IN REMARKS
   TC - TEMPERATURE IN CELSIUS
  WCI - WIND CHILL INDEX
   HX - HEAT INDEX
  VSB - VISIBILITY




USA.gov is the U.S. government's official web portal to all federal, state and local government web resources and services.